Time,TemperatureF,DewpointF,PressureIn,WindDirection,WindDirectionDegrees,WindSpeedMPH,WindSpeedGustMPH,Humidity,HourlyPrecipIn,Conditions,Clouds,dailyrainin,SoftwareType,DateUTC
2013-01-02 00:00:00,17.4,12.3,30.04,SE,131,4.0,12.0,80,0.00,,,0.00,WUHU216DAVISVP2,2013-01-02 05:00:00,
2013-01-02 00:01:00,17.4,12.3,30.04,East,86,7.0,12.0,80,0.00,,,0.00,WUHU216DAVISVP2,2013-01-02 05:01:00,
2013-01-02 00:02:00,17.4,12.3,30.04,ESE,113,3.0,12.0,80,0.00,,,0.00,WUHU216DAVISVP2,2013-01-02 05:02:00,
2013-01-02 00:07:00,17.4,12.3,30.04,East,90,9.0,11.0,80,0.00,,,0.00,WUHU216DAVISVP2,2013-01-02 05:07:00,
2013-01-02 00:12:00,17.4,12.3,30.04,ENE,74,4.0,12.0,80,0.00,,,0.00,WUHU216DAVISVP2,2013-01-02 05:12:00,
2013-01-02 00:17:00,17.4,12.0,30.04,ESE,108,7.0,12.0,79,0.00,,,0.00,WUHU216DAVISVP2,2013-01-02 05:17:00,
2013-01-02 00:22:00,17.4,12.3,30.03,SE,127,6.0,12.0,80,0.00,,,0.00,WUHU216DAVISVP2,2013-01-02 05:22:00,
2013-01-02 00:27:00,17.4,12.3,30.04,SSE,149,6.0,12.0,80,0.00,,,0.00,WUHU216DAVISVP2,2013-01-02 05:27:00,
2013-01-02 00:32:00,17.4,12.0,30.03,ESE,120,10.0,12.0,79,0.00,,,0.00,WUHU216DAVISVP2,2013-01-02 05:32:00,
2013-01-02 00:37:00,17.4,12.3,30.03,East,101,11.0,11.0,80,0.00,,,0.00,WUHU216DAVISVP2,2013-01-02 05:37:00,
2013-01-02 00:42:00,17.4,12.3,30.04,ENE,75,3.0,14.0,80,0.00,,,0.00,WUHU216DAVISVP2,2013-01-02 05:42:00,
2013-01-02 00:47:00,17.4,12.3,30.04,ESE,108,5.0,14.0,80,0.00,,,0.00,WUHU216DAVISVP2,2013-01-02 05:47:00,
2013-01-02 00:52:00,17.3,12.2,30.03,SE,129,9.0,12.0,80,0.00,,,0.00,WUHU216DAVISVP2,2013-01-02 05:52:00,
2013-01-02 00:57:00,17.4,12.0,30.03,East,101,9.0,17.0,79,0.00,,,0.00,WUHU216DAVISVP2,2013-01-02 05:57:00,
2013-01-02 01:02:00,17.4,12.0,30.03,East,98,11.0,17.0,79,0.00,,,0.00,WUHU216DAVISVP2,2013-01-02 06:02:00,
2013-01-02 01:07:00,17.4,12.0,30.03,ESE,109,9.0,17.0,79,0.00,,,0.00,WUHU216DAVISVP2,2013-01-02 06:07:00,
2013-01-02 01:12:00,17.4,12.0,30.03,SE,131,6.0,17.0,79,0.00,,,0.00,WUHU216DAVISVP2,2013-01-02 06:12:00,
2013-01-02 01:17:00,17.3,11.9,30.03,SE,129,3.0,17.0,79,0.00,,,0.00,WUHU216DAVISVP2,2013-01-02 06:17:00,
2013-01-02 01:22:00,17.3,12.2,30.03,SE,134,3.0,15.0,80,0.00,,,0.00,WUHU216DAVISVP2,2013-01-02 06:22:00,
2013-01-02 01:27:00,17.1,12.0,30.03,East,84,5.0,9.0,80,0.00,,,0.00,WUHU216DAVISVP2,2013-01-02 06:27:00,
2013-01-02 01:32:00,17.1,12.0,30.03,East,80,3.0,11.0,80,0.00,,,0.00,WUHU216DAVISVP2,2013-01-02 06:32:00,
2013-01-02 01:37:00,17.1,12.0,30.03,East,97,6.0,11.0,80,0.00,,,0.00,WUHU216DAVISVP2,2013-01-02 06:37:00,
2013-01-02 01:42:00,17.0,11.9,30.03,East,86,3.0,10.0,80,0.00,,,0.00,WUHU216DAVISVP2,2013-01-02 06:42:00,
2013-01-02 01:47:00,17.0,11.9,30.03,East,94,8.0,11.0,80,0.00,,,0.00,WUHU216DAVISVP2,2013-01-02 06:47:00,
2013-01-02 01:52:00,17.0,11.9,30.03,East,85,7.0,11.0,80,0.00,,,0.00,WUHU216DAVISVP2,2013-01-02 06:52:00,
2013-01-02 01:57:00,17.0,11.9,30.03,East,91,10.0,12.0,80,0.00,,,0.00,WUHU216DAVISVP2,2013-01-02 06:57:00,
2013-01-02 02:02:00,17.1,12.0,30.03,East,86,11.0,12.0,80,0.00,,,0.00,WUHU216DAVISVP2,2013-01-02 07:02:00,
2013-01-02 02:07:00,17.2,12.1,30.03,ESE,118,4.0,16.0,80,0.00,,,0.00,WUHU216DAVISVP2,2013-01-02 07:07:00,
2013-01-02 02:12:00,17.2,12.1,30.03,East,98,7.0,16.0,80,0.00,,,0.00,WUHU216DAVISVP2,2013-01-02 07:12:00,
2013-01-02 02:17:00,17.2,12.1,30.03,SE,134,2.0,14.0,80,0.00,,,0.00,WUHU216DAVISVP2,2013-01-02 07:17:00,
2013-01-02 02:22:00,17.3,12.2,30.03,East,94,6.0,14.0,80,0.00,,,0.00,WUHU216DAVISVP2,2013-01-02 07:22:00,
2013-01-02 02:27:00,17.3,12.2,30.03,East,85,5.0,10.0,80,0.00,,,0.00,WUHU216DAVISVP2,2013-01-02 07:27:00,
2013-01-02 02:32:00,17.3,12.5,30.03,ESE,103,4.0,10.0,81,0.00,,,0.00,WUHU216DAVISVP2,2013-01-02 07:32:00,
2013-01-02 02:37:00,17.3,12.5,30.03,SE,135,6.0,8.0,81,0.00,,,0.00,WUHU216DAVISVP2,2013-01-02 07:37:00,
2013-01-02 02:42:00,17.3,12.5,30.03,ESE,114,6.0,8.0,81,0.00,,,0.00,WUHU216DAVISVP2,2013-01-02 07:42:00,
2013-01-02 02:47:00,17.3,12.5,30.03,ENE,74,5.0,9.0,81,0.00,,,0.00,WUHU216DAVISVP2,2013-01-02 07:47:00,
2013-01-02 02:52:00,17.3,12.5,30.04,East,97,7.0,9.0,81,0.00,,,0.00,WUHU216DAVISVP2,2013-01-02 07:52:00,
2013-01-02 02:57:00,17.4,12.6,30.04,ENE,74,6.0,9.0,81,0.00,,,0.00,WUHU216DAVISVP2,2013-01-02 07:57:00,
2013-01-02 03:02:00,17.5,12.7,30.03,East,97,3.0,8.0,81,0.00,,,0.00,WUHU216DAVISVP2,2013-01-02 08:02:00,
2013-01-02 03:07:00,17.6,12.8,30.04,East,95,2.0,8.0,81,0.00,,,0.00,WUHU216DAVISVP2,2013-01-02 08:07:00,
2013-01-02 03:12:00,17.6,13.0,30.04,ESE,105,1.0,7.0,82,0.00,,,0.00,WUHU216DAVISVP2,2013-01-02 08:12:00,
2013-01-02 03:17:00,17.7,13.1,30.04,ENE,72,3.0,6.0,82,0.00,,,0.00,WUHU216DAVISVP2,2013-01-02 08:17:00,
2013-01-02 03:22:00,17.7,13.1,30.04,ENE,78,4.0,6.0,82,0.00,,,0.00,WUHU216DAVISVP2,2013-01-02 08:22:00,
2013-01-02 03:27:00,17.8,13.2,30.05,ENE,69,3.0,6.0,82,0.00,,,0.00,WUHU216DAVISVP2,2013-01-02 08:27:00,
2013-01-02 03:32:00,17.8,13.2,30.05,NE,44,3.0,7.0,82,0.00,,,0.00,WUHU216DAVISVP2,2013-01-02 08:32:00,
2013-01-02 03:37:00,18.0,13.4,30.05,ENE,64,2.0,7.0,82,0.00,,,0.00,WUHU216DAVISVP2,2013-01-02 08:37:00,
2013-01-02 03:42:00,18.0,13.4,30.05,ENE,72,5.0,6.0,82,0.00,,,0.00,WUHU216DAVISVP2,2013-01-02 08:42:00,
2013-01-02 03:47:00,18.1,13.5,30.05,NE,56,3.0,6.0,82,0.00,,,0.00,WUHU216DAVISVP2,2013-01-02 08:47:00,
2013-01-02 03:52:00,18.2,13.6,30.05,ENE,72,2.0,7.0,82,0.00,,,0.00,WUHU216DAVISVP2,2013-01-02 08:52:00,
2013-01-02 03:57:00,18.2,13.6,30.05,ENE,76,5.0,7.0,82,0.00,,,0.00,WUHU216DAVISVP2,2013-01-02 08:57:00,
2013-01-02 04:02:00,18.3,13.7,30.05,ENE,60,2.0,7.0,82,0.00,,,0.00,WUHU216DAVISVP2,2013-01-02 09:02:00,
2013-01-02 04:07:00,18.3,13.7,30.05,NE,46,3.0,6.0,82,0.00,,,0.00,WUHU216DAVISVP2,2013-01-02 09:07:00,
2013-01-02 04:12:00,18.5,13.9,30.05,ENE,73,3.0,6.0,82,0.00,,,0.00,WUHU216DAVISVP2,2013-01-02 09:12:00,
2013-01-02 04:17:00,18.5,13.9,30.05,ENE,64,3.0,7.0,82,0.00,,,0.00,WUHU216DAVISVP2,2013-01-02 09:17:00,
2013-01-02 04:22:00,18.6,14.0,30.05,East,89,2.0,7.0,82,0.00,,,0.00,WUHU216DAVISVP2,2013-01-02 09:22:00,
2013-01-02 04:27:00,18.7,14.1,30.04,East,84,4.0,7.0,82,0.00,,,0.00,WUHU216DAVISVP2,2013-01-02 09:27:00,
2013-01-02 04:32:00,18.7,14.4,30.04,ENE,72,2.0,7.0,83,0.00,,,0.00,WUHU216DAVISVP2,2013-01-02 09:32:00,
2013-01-02 04:37:00,18.8,14.5,30.04,East,80,4.0,6.0,83,0.00,,,0.00,WUHU216DAVISVP2,2013-01-02 09:37:00,
2013-01-02 04:42:00,18.8,14.5,30.04,East,90,4.0,6.0,83,0.00,,,0.00,WUHU216DAVISVP2,2013-01-02 09:42:00,
2013-01-02 04:47:00,18.9,14.6,30.04,East,84,4.0,6.0,83,0.00,,,0.00,WUHU216DAVISVP2,2013-01-02 09:47:00,
2013-01-02 04:52:00,18.9,14.6,30.04,East,88,4.0,6.0,83,0.00,,,0.00,WUHU216DAVISVP2,2013-01-02 09:52:00,
2013-01-02 04:57:00,19.0,14.7,30.04,East,86,4.0,6.0,83,0.00,,,0.00,WUHU216DAVISVP2,2013-01-02 09:57:00,
2013-01-02 05:02:00,19.0,14.7,30.04,East,95,2.0,6.0,83,0.00,,,0.00,WUHU216DAVISVP2,2013-01-02 10:02:00,
2013-01-02 05:07:00,19.0,14.7,30.03,East,89,4.0,6.0,83,0.00,,,0.00,WUHU216DAVISVP2,2013-01-02 10:07:00,
2013-01-02 05:12:00,19.0,14.7,30.04,East,85,2.0,5.0,83,0.00,,,0.00,WUHU216DAVISVP2,2013-01-02 10:12:00,
2013-01-02 05:17:00,19.1,15.1,30.03,ESE,106,1.0,5.0,84,0.00,,,0.00,WUHU216DAVISVP2,2013-01-02 10:17:00,
2013-01-02 05:22:00,19.1,15.1,30.04,East,88,3.0,4.0,84,0.00,,,0.00,WUHU216DAVISVP2,2013-01-02 10:22:00,
2013-01-02 05:27:00,19.2,15.1,30.04,East,86,2.0,5.0,84,0.00,,,0.00,WUHU216DAVISVP2,2013-01-02 10:27:00,
2013-01-02 05:32:00,19.2,15.2,30.03,ENE,63,3.0,5.0,84,0.00,,,0.00,WUHU216DAVISVP2,2013-01-02 10:32:00,
2013-01-02 05:37:00,19.2,15.1,30.03,East,80,2.0,5.0,84,0.00,,,0.00,WUHU216DAVISVP2,2013-01-02 10:37:00,
2013-01-02 05:42:00,19.3,15.3,30.04,East,83,2.0,5.0,84,0.00,,,0.00,WUHU216DAVISVP2,2013-01-02 10:42:00,
2013-01-02 05:47:00,19.3,15.3,30.04,East,100,3.0,6.0,84,0.00,,,0.00,WUHU216DAVISVP2,2013-01-02 10:47:00,
2013-01-02 05:52:00,19.4,15.3,30.04,East,82,3.0,6.0,84,0.00,,,0.00,WUHU216DAVISVP2,2013-01-02 10:52:00,
2013-01-02 05:57:00,19.4,15.6,30.04,East,99,2.0,5.0,85,0.00,,,0.00,WUHU216DAVISVP2,2013-01-02 10:57:00,
2013-01-02 06:02:00,19.4,15.6,30.04,ENE,65,3.0,6.0,85,0.00,,,0.00,WUHU216DAVISVP2,2013-01-02 11:02:00,
2013-01-02 06:07:00,19.5,15.7,30.04,ENE,78,1.0,6.0,85,0.00,,,0.00,WUHU216DAVISVP2,2013-01-02 11:07:00,
2013-01-02 06:12:00,19.5,15.7,30.04,ESE,104,2.0,6.0,85,0.00,,,0.00,WUHU216DAVISVP2,2013-01-02 11:12:00,
2013-01-02 06:17:00,19.6,15.8,30.04,East,96,1.0,5.0,85,0.00,,,0.00,WUHU216DAVISVP2,2013-01-02 11:17:00,
2013-01-02 06:22:00,19.6,15.8,30.05,East,86,3.0,6.0,85,0.00,,,0.00,WUHU216DAVISVP2,2013-01-02 11:22:00,
2013-01-02 06:27:00,19.7,15.9,30.04,ESE,102,3.0,6.0,85,0.00,,,0.00,WUHU216DAVISVP2,2013-01-02 11:27:00,
2013-01-02 06:32:00,19.7,15.9,30.05,ESE,113,1.0,5.0,85,0.00,,,0.00,WUHU216DAVISVP2,2013-01-02 11:32:00,
2013-01-02 06:37:00,19.8,16.0,30.05,East,90,2.0,5.0,85,0.00,,,0.00,WUHU216DAVISVP2,2013-01-02 11:37:00,
2013-01-02 06:42:00,19.8,16.3,30.05,East,91,3.0,5.0,86,0.00,,,0.00,WUHU216DAVISVP2,2013-01-02 11:42:00,
2013-01-02 06:47:00,19.8,16.3,30.05,East,101,4.0,6.0,86,0.00,,,0.00,WUHU216DAVISVP2,2013-01-02 11:47:00,
2013-01-02 06:52:00,19.9,16.4,30.05,East,84,2.0,6.0,86,0.00,,,0.00,WUHU216DAVISVP2,2013-01-02 11:52:00,
2013-01-02 06:57:00,20.0,16.5,30.05,East,84,4.0,7.0,86,0.00,,,0.00,WUHU216DAVISVP2,2013-01-02 11:57:00,
2013-01-02 07:02:00,20.0,16.5,30.05,East,95,4.0,7.0,86,0.00,,,0.00,WUHU216DAVISVP2,2013-01-02 12:02:00,
2013-01-02 07:07:00,20.0,16.5,30.05,East,95,3.0,7.0,86,0.00,,,0.00,WUHU216DAVISVP2,2013-01-02 12:07:00,
2013-01-02 07:12:00,20.1,16.6,30.05,East,88,3.0,6.0,86,0.00,,,0.00,WUHU216DAVISVP2,2013-01-02 12:12:00,
2013-01-02 07:17:00,20.1,16.6,30.05,ENE,60,3.0,6.0,86,0.00,,,0.00,WUHU216DAVISVP2,2013-01-02 12:17:00,
2013-01-02 07:22:00,20.2,16.7,30.05,East,94,4.0,6.0,86,0.00,,,0.00,WUHU216DAVISVP2,2013-01-02 12:22:00,
2013-01-02 07:27:00,20.3,16.8,30.06,ESE,103,1.0,6.0,86,0.00,,,0.00,WUHU216DAVISVP2,2013-01-02 12:27:00,
2013-01-02 07:32:00,20.4,16.6,30.05,ESE,115,1.0,6.0,85,0.00,,,0.00,WUHU216DAVISVP2,2013-01-02 12:32:00,
2013-01-02 07:37:00,20.4,16.8,30.05,East,82,4.0,6.0,86,0.00,,,0.00,WUHU216DAVISVP2,2013-01-02 12:37:00,
2013-01-02 07:42:00,20.4,16.6,30.05,East,88,4.0,8.0,85,0.00,,,0.00,WUHU216DAVISVP2,2013-01-02 12:42:00,
2013-01-02 07:47:00,20.6,16.8,30.05,ESE,119,1.0,8.0,85,0.00,,,0.00,WUHU216DAVISVP2,2013-01-02 12:47:00,
2013-01-02 07:52:00,20.7,16.9,30.05,East,85,4.0,8.0,85,0.00,,,0.00,WUHU216DAVISVP2,2013-01-02 12:52:00,
2013-01-02 07:57:00,20.8,17.0,30.05,ESE,110,2.0,8.0,85,0.00,,,0.00,WUHU216DAVISVP2,2013-01-02 12:57:00,
2013-01-02 08:02:00,20.8,17.0,30.05,East,85,5.0,9.0,85,0.00,,,0.00,WUHU216DAVISVP2,2013-01-02 13:02:00,
2013-01-02 08:07:00,20.9,17.1,30.06,ENE,78,6.0,9.0,85,0.00,,,0.00,WUHU216DAVISVP2,2013-01-02 13:07:00,
2013-01-02 08:12:00,21.1,17.3,30.06,East,94,7.0,9.0,85,0.00,,,0.00,WUHU216DAVISVP2,2013-01-02 13:12:00,
2013-01-02 08:17:00,21.2,17.4,30.06,East,95,3.0,9.0,85,0.00,,,0.00,WUHU216DAVISVP2,2013-01-02 13:17:00,
2013-01-02 08:22:00,21.3,17.2,30.07,ENE,72,7.0,10.0,84,0.00,,,0.00,WUHU216DAVISVP2,2013-01-02 13:22:00,
2013-01-02 08:27:00,21.4,17.3,30.07,East,82,2.0,10.0,84,0.00,,,0.00,WUHU216DAVISVP2,2013-01-02 13:27:00,
2013-01-02 08:32:00,21.5,17.4,30.07,SE,128,3.0,9.0,84,0.00,,,0.00,WUHU216DAVISVP2,2013-01-02 13:32:00,
2013-01-02 08:37:00,21.6,17.5,30.06,ESE,121,2.0,10.0,84,0.00,,,0.00,WUHU216DAVISVP2,2013-01-02 13:37:00,
2013-01-02 08:42:00,21.6,17.5,30.06,ENE,62,4.0,10.0,84,0.00,,,0.00,WUHU216DAVISVP2,2013-01-02 13:42:00,
2013-01-02 08:47:00,21.6,17.5,30.06,East,98,6.0,9.0,84,0.00,,,0.00,WUHU216DAVISVP2,2013-01-02 13:47:00,
2013-01-02 08:52:00,21.6,17.5,30.07,ESE,109,1.0,8.0,84,0.00,,,0.00,WUHU216DAVISVP2,2013-01-02 13:52:00,
2013-01-02 08:57:00,21.6,17.5,30.07,East,89,1.0,7.0,84,0.00,,,0.00,WUHU216DAVISVP2,2013-01-02 13:57:00,
2013-01-02 09:02:00,21.7,17.9,30.07,ESE,109,5.0,7.0,85,0.00,,,0.00,WUHU216DAVISVP2,2013-01-02 14:02:00,
2013-01-02 09:07:00,21.7,17.9,30.07,East,80,5.0,6.0,85,0.00,,,0.00,WUHU216DAVISVP2,2013-01-02 14:07:00,
2013-01-02 09:12:00,21.7,18.1,30.07,ESE,122,2.0,6.0,86,0.00,,,0.00,WUHU216DAVISVP2,2013-01-02 14:12:00,
2013-01-02 09:17:00,21.6,18.1,30.07,SE,127,2.0,6.0,86,0.00,,,0.00,WUHU216DAVISVP2,2013-01-02 14:17:00,
2013-01-02 09:22:00,21.6,18.3,30.08,East,87,5.0,6.0,87,0.00,,,0.00,WUHU216DAVISVP2,2013-01-02 14:22:00,
2013-01-02 09:27:00,21.6,18.3,30.08,ESE,109,2.0,6.0,87,0.00,,,0.00,WUHU216DAVISVP2,2013-01-02 14:27:00,
2013-01-02 09:32:00,21.6,18.6,30.08,SE,137,2.0,6.0,88,0.00,,,0.00,WUHU216DAVISVP2,2013-01-02 14:32:00,
2013-01-02 09:37:00,21.6,18.6,30.08,East,95,2.0,6.0,88,0.00,,,0.00,WUHU216DAVISVP2,2013-01-02 14:37:00,
2013-01-02 09:42:00,21.6,18.6,30.08,East,94,1.0,6.0,88,0.00,,,0.00,WUHU216DAVISVP2,2013-01-02 14:42:00,
2013-01-02 09:47:00,21.6,18.6,30.08,East,94,3.0,5.0,88,0.00,,,0.00,WUHU216DAVISVP2,2013-01-02 14:47:00,
2013-01-02 09:52:00,21.6,18.9,30.09,East,96,2.0,5.0,89,0.00,,,0.00,WUHU216DAVISVP2,2013-01-02 14:52:00,
2013-01-02 09:57:00,21.7,18.9,30.09,East,89,4.0,5.0,89,0.00,,,0.00,WUHU216DAVISVP2,2013-01-02 14:57:00,
2013-01-02 10:02:00,21.7,18.9,30.09,East,95,3.0,8.0,89,0.00,,,0.00,WUHU216DAVISVP2,2013-01-02 15:02:00,
2013-01-02 10:07:00,21.7,18.9,30.09,SE,125,3.0,8.0,89,0.00,,,0.00,WUHU216DAVISVP2,2013-01-02 15:07:00,
2013-01-02 10:12:00,21.7,18.9,30.09,SE,141,3.0,8.0,89,0.00,,,0.00,WUHU216DAVISVP2,2013-01-02 15:12:00,
2013-01-02 10:17:00,21.7,18.9,30.09,SE,145,4.0,9.0,89,0.00,,,0.00,WUHU216DAVISVP2,2013-01-02 15:17:00,
2013-01-02 10:22:00,21.8,19.0,30.10,ESE,103,3.0,9.0,89,0.00,,,0.00,WUHU216DAVISVP2,2013-01-02 15:22:00,
2013-01-02 10:27:00,21.9,19.1,30.10,East,99,4.0,8.0,89,0.00,,,0.00,WUHU216DAVISVP2,2013-01-02 15:27:00,
2013-01-02 10:32:00,21.9,19.1,30.10,ENE,70,3.0,8.0,89,0.00,,,0.00,WUHU216DAVISVP2,2013-01-02 15:32:00,
2013-01-02 10:37:00,22.0,18.9,30.10,East,92,3.0,7.0,88,0.00,,,0.00,WUHU216DAVISVP2,2013-01-02 15:37:00,
2013-01-02 10:42:00,22.0,18.9,30.10,East,93,2.0,5.0,88,0.00,,,0.00,WUHU216DAVISVP2,2013-01-02 15:42:00,
2013-01-02 10:47:00,22.1,19.0,30.10,ENE,68,3.0,6.0,88,0.00,,,0.00,WUHU216DAVISVP2,2013-01-02 15:47:00,
2013-01-02 10:52:00,22.1,19.0,30.10,ESE,120,1.0,6.0,88,0.00,,,0.00,WUHU216DAVISVP2,2013-01-02 15:52:00,
2013-01-02 10:57:00,22.2,19.1,30.10,ESE,113,0.0,6.0,88,0.00,,,0.00,WUHU216DAVISVP2,2013-01-02 15:57:00,
2013-01-02 11:02:00,22.3,19.3,30.11,East,91,2.0,6.0,88,0.00,,,0.00,WUHU216DAVISVP2,2013-01-02 16:02:00,
2013-01-02 11:07:00,22.3,19.2,30.11,ESE,116,1.0,5.0,88,0.00,,,0.00,WUHU216DAVISVP2,2013-01-02 16:07:00,
2013-01-02 11:12:00,22.4,19.4,30.11,East,95,2.0,5.0,88,0.00,,,0.00,WUHU216DAVISVP2,2013-01-02 16:12:00,
2013-01-02 11:17:00,22.4,19.3,30.10,ESE,105,2.0,5.0,88,0.00,,,0.00,WUHU216DAVISVP2,2013-01-02 16:17:00,
2013-01-02 11:22:00,22.4,19.3,30.11,SE,125,1.0,6.0,88,0.00,,,0.00,WUHU216DAVISVP2,2013-01-02 16:22:00,
2013-01-02 11:27:00,22.4,19.4,30.11,East,94,2.0,6.0,88,0.00,,,0.00,WUHU216DAVISVP2,2013-01-02 16:27:00,
2013-01-02 11:32:00,22.5,19.5,30.10,East,83,1.0,5.0,88,0.00,,,0.00,WUHU216DAVISVP2,2013-01-02 16:32:00,
2013-01-02 11:37:00,22.5,19.4,30.10,SE,135,1.0,5.0,88,0.00,,,0.00,WUHU216DAVISVP2,2013-01-02 16:37:00,
2013-01-02 11:42:00,22.6,19.5,30.10,SE,129,2.0,3.0,88,0.00,,,0.00,WUHU216DAVISVP2,2013-01-02 16:42:00,
2013-01-02 11:47:00,22.6,19.5,30.10,SE,141,2.0,3.0,88,0.00,,,0.00,WUHU216DAVISVP2,2013-01-02 16:47:00,
2013-01-02 11:52:00,22.6,19.5,30.10,SE,134,0.0,3.0,88,0.00,,,0.00,WUHU216DAVISVP2,2013-01-02 16:52:00,
2013-01-02 11:57:00,22.6,19.5,30.10,ESE,109,0.0,3.0,88,0.00,,,0.00,WUHU216DAVISVP2,2013-01-02 16:57:00,
2013-01-02 12:03:00,22.6,19.5,30.09,SE,133,1.0,3.0,88,0.00,,,0.00,WUHU216DAVISVP2,2013-01-02 17:03:00,
2013-01-02 12:08:00,22.7,19.6,30.09,SE,131,1.0,3.0,88,0.00,,,0.00,WUHU216DAVISVP2,2013-01-02 17:08:00,
2013-01-02 12:13:00,22.7,19.6,30.09,SE,133,1.0,3.0,88,0.00,,,0.00,WUHU216DAVISVP2,2013-01-02 17:13:00,
2013-01-02 12:18:00,22.7,19.6,30.09,SE,131,1.0,3.0,88,0.00,,,0.00,WUHU216DAVISVP2,2013-01-02 17:18:00,
2013-01-02 12:23:00,22.7,19.6,30.09,ESE,113,0.0,3.0,88,0.00,,,0.00,WUHU216DAVISVP2,2013-01-02 17:23:00,
2013-01-02 12:28:00,22.7,19.7,30.09,SE,131,0.0,2.0,88,0.00,,,0.00,WUHU216DAVISVP2,2013-01-02 17:28:00,
2013-01-02 12:33:00,22.7,19.6,30.09,East,98,0.0,2.0,88,0.00,,,0.00,WUHU216DAVISVP2,2013-01-02 17:33:00,
2013-01-02 12:38:00,22.8,19.7,30.09,SE,136,0.0,2.0,88,0.00,,,0.00,WUHU216DAVISVP2,2013-01-02 17:38:00,
2013-01-02 12:43:00,22.9,19.8,30.08,ESE,105,0.0,2.0,88,0.00,,,0.00,WUHU216DAVISVP2,2013-01-02 17:43:00,
2013-01-02 12:48:00,22.9,19.8,30.08,ESE,119,0.0,2.0,88,0.00,,,0.00,WUHU216DAVISVP2,2013-01-02 17:48:00,
2013-01-02 12:53:00,22.9,19.8,30.08,SE,145,2.0,2.0,88,0.00,,,0.00,WUHU216DAVISVP2,2013-01-02 17:53:00,
2013-01-02 12:58:00,23.0,19.9,30.08,East,88,0.0,2.0,88,0.00,,,0.00,WUHU216DAVISVP2,2013-01-02 17:58:00,
2013-01-02 13:03:00,23.1,20.0,30.08,ENE,58,4.0,4.0,88,0.00,,,0.00,WUHU216DAVISVP2,2013-01-02 18:03:00,
2013-01-02 13:08:00,23.1,20.0,30.09,East,79,4.0,4.0,88,0.00,,,0.00,WUHU216DAVISVP2,2013-01-02 18:08:00,
2013-01-02 13:13:00,23.1,20.0,30.08,East,89,2.0,4.0,88,0.00,,,0.00,WUHU216DAVISVP2,2013-01-02 18:13:00,
2013-01-02 13:18:00,23.2,20.2,30.08,East,100,2.0,5.0,88,0.00,,,0.00,WUHU216DAVISVP2,2013-01-02 18:18:00,
2013-01-02 13:23:00,23.3,20.3,30.08,ENE,76,2.0,5.0,88,0.00,,,0.00,WUHU216DAVISVP2,2013-01-02 18:23:00,
2013-01-02 13:28:00,23.4,20.4,30.08,ENE,67,0.0,8.0,88,0.00,,,0.00,WUHU216DAVISVP2,2013-01-02 18:28:00,
2013-01-02 13:33:00,23.5,20.4,30.08,ENE,68,6.0,8.0,88,0.00,,,0.00,WUHU216DAVISVP2,2013-01-02 18:33:00,
2013-01-02 13:38:00,23.5,20.4,30.07,East,89,2.0,7.0,88,0.00,,,0.00,WUHU216DAVISVP2,2013-01-02 18:38:00,
2013-01-02 13:43:00,23.6,20.3,30.07,ESE,110,4.0,10.0,87,0.00,,,0.00,WUHU216DAVISVP2,2013-01-02 18:43:00,
2013-01-02 13:48:00,23.6,20.5,30.07,East,93,8.0,11.0,88,0.00,,,0.00,WUHU216DAVISVP2,2013-01-02 18:48:00,
2013-01-02 13:53:00,23.6,20.5,30.07,ENE,67,2.0,11.0,88,0.00,,,0.00,WUHU216DAVISVP2,2013-01-02 18:53:00,
2013-01-02 13:58:00,23.7,20.6,30.07,ENE,75,10.0,10.0,88,0.00,,,0.00,WUHU216DAVISVP2,2013-01-02 18:58:00,
2013-01-02 14:03:00,23.6,20.3,30.07,ENE,73,6.0,10.0,87,0.00,,,0.00,WUHU216DAVISVP2,2013-01-02 19:03:00,
2013-01-02 14:08:00,23.7,20.4,30.07,ENE,63,3.0,10.0,87,0.00,,,0.00,WUHU216DAVISVP2,2013-01-02 19:08:00,
2013-01-02 14:13:00,23.8,20.5,30.07,ENE,77,5.0,9.0,87,0.00,,,0.00,WUHU216DAVISVP2,2013-01-02 19:13:00,
2013-01-02 14:18:00,23.7,20.4,30.07,East,83,6.0,10.0,87,0.00,,,0.00,WUHU216DAVISVP2,2013-01-02 19:18:00,
2013-01-02 14:23:00,23.7,20.4,30.06,East,84,1.0,10.0,87,0.00,,,0.00,WUHU216DAVISVP2,2013-01-02 19:23:00,
2013-01-02 14:28:00,23.7,20.4,30.06,ENE,69,3.0,8.0,87,0.00,,,0.00,WUHU216DAVISVP2,2013-01-02 19:28:00,
2013-01-02 14:33:00,23.7,20.4,30.06,East,99,2.0,8.0,87,0.00,,,0.00,WUHU216DAVISVP2,2013-01-02 19:33:00,
2013-01-02 14:38:00,23.8,20.5,30.06,East,97,6.0,7.0,87,0.00,,,0.00,WUHU216DAVISVP2,2013-01-02 19:38:00,
2013-01-02 14:43:00,23.8,20.5,30.06,ENE,68,4.0,7.0,87,0.00,,,0.00,WUHU216DAVISVP2,2013-01-02 19:43:00,
2013-01-02 14:48:00,23.8,20.5,30.06,East,94,4.0,7.0,87,0.00,,,0.00,WUHU216DAVISVP2,2013-01-02 19:48:00,
2013-01-02 14:53:00,23.8,20.2,30.06,East,82,8.0,8.0,86,0.00,,,0.00,WUHU216DAVISVP2,2013-01-02 19:53:00,
2013-01-02 14:58:00,23.8,20.2,30.06,ESE,108,8.0,9.0,86,0.00,,,0.00,WUHU216DAVISVP2,2013-01-02 19:58:00,
2013-01-02 15:03:00,23.8,19.9,30.06,East,90,10.0,12.0,85,0.00,,,0.00,WUHU216DAVISVP2,2013-01-02 20:03:00,
2013-01-02 15:08:00,23.8,19.9,30.06,East,80,7.0,12.0,85,0.00,,,0.00,WUHU216DAVISVP2,2013-01-02 20:08:00,
2013-01-02 15:13:00,23.8,19.9,30.06,NE,52,4.0,11.0,85,0.00,,,0.00,WUHU216DAVISVP2,2013-01-02 20:13:00,
2013-01-02 15:18:00,23.8,20.2,30.06,ENE,76,8.0,10.0,86,0.00,,,0.00,WUHU216DAVISVP2,2013-01-02 20:18:00,
2013-01-02 15:23:00,23.8,20.2,30.07,ESE,115,5.0,9.0,86,0.00,,,0.00,WUHU216DAVISVP2,2013-01-02 20:23:00,
2013-01-02 15:28:00,23.8,20.2,30.07,ENE,70,3.0,9.0,86,0.00,,,0.00,WUHU216DAVISVP2,2013-01-02 20:28:00,
2013-01-02 15:33:00,23.7,20.1,30.07,East,91,2.0,9.0,86,0.00,,,0.00,WUHU216DAVISVP2,2013-01-02 20:33:00,
2013-01-02 15:38:00,23.8,20.2,30.07,East,85,3.0,9.0,86,0.00,,,0.00,WUHU216DAVISVP2,2013-01-02 20:38:00,
2013-01-02 15:43:00,23.7,20.1,30.07,East,86,3.0,8.0,86,0.00,,,0.00,WUHU216DAVISVP2,2013-01-02 20:43:00,
2013-01-02 15:48:00,23.7,20.1,30.07,ENE,77,6.0,8.0,86,0.00,,,0.00,WUHU216DAVISVP2,2013-01-02 20:48:00,
2013-01-02 15:53:00,23.7,20.1,30.07,ENE,65,4.0,7.0,86,0.00,,,0.00,WUHU216DAVISVP2,2013-01-02 20:53:00,
2013-01-02 15:58:00,23.7,20.4,30.07,East,88,2.0,7.0,87,0.00,,,0.00,WUHU216DAVISVP2,2013-01-02 20:58:00,
2013-01-02 16:03:00,23.7,20.4,30.07,ENE,78,2.0,7.0,87,0.00,,,0.00,WUHU216DAVISVP2,2013-01-02 21:03:00,
2013-01-02 16:08:00,23.7,20.4,30.08,East,89,3.0,6.0,87,0.00,,,0.00,WUHU216DAVISVP2,2013-01-02 21:08:00,
2013-01-02 16:13:00,23.7,20.4,30.08,ENE,65,4.0,7.0,87,0.00,,,0.00,WUHU216DAVISVP2,2013-01-02 21:13:00,
2013-01-02 16:18:00,23.7,20.4,30.08,ENE,74,4.0,7.0,87,0.00,,,0.00,WUHU216DAVISVP2,2013-01-02 21:18:00,
2013-01-02 16:23:00,23.6,20.3,30.08,NE,37,3.0,6.0,87,0.00,,,0.00,WUHU216DAVISVP2,2013-01-02 21:23:00,
2013-01-02 16:28:00,23.7,20.4,30.08,ENE,60,1.0,6.0,87,0.00,,,0.00,WUHU216DAVISVP2,2013-01-02 21:28:00,
2013-01-02 16:33:00,23.7,20.4,30.08,East,82,3.0,6.0,87,0.00,,,0.00,WUHU216DAVISVP2,2013-01-02 21:33:00,
2013-01-02 16:40:00,23.7,20.6,30.08,ENE,57,2.0,5.0,88,0.00,,,0.00,WUHU216DAVISVP2,2013-01-02 21:40:00,
2013-01-02 16:49:00,23.6,20.5,30.08,ENE,60,4.0,6.0,88,0.00,,,0.00,WUHU216DAVISVP2,2013-01-02 21:49:00,
2013-01-02 16:54:00,23.6,20.5,30.08,NE,46,3.0,6.0,88,0.00,,,0.00,WUHU216DAVISVP2,2013-01-02 21:54:00,
2013-01-02 16:59:00,23.6,20.5,30.08,East,79,2.0,6.0,88,0.00,,,0.00,WUHU216DAVISVP2,2013-01-02 21:59:00,
2013-01-02 17:04:00,23.6,20.5,30.08,ENE,60,5.0,5.0,88,0.00,,,0.00,WUHU216DAVISVP2,2013-01-02 22:04:00,
2013-01-02 17:09:00,23.6,20.8,30.08,NE,46,1.0,5.0,89,0.00,,,0.00,WUHU216DAVISVP2,2013-01-02 22:09:00,
2013-01-02 17:14:00,23.6,20.8,30.08,NE,49,1.0,5.0,89,0.00,,,0.00,WUHU216DAVISVP2,2013-01-02 22:14:00,
2013-01-02 17:19:00,23.6,20.8,30.08,East,85,1.0,5.0,89,0.00,,,0.00,WUHU216DAVISVP2,2013-01-02 22:19:00,
2013-01-02 17:24:00,23.5,20.7,30.08,NE,46,2.0,4.0,89,0.00,,,0.00,WUHU216DAVISVP2,2013-01-02 22:24:00,
2013-01-02 17:29:00,23.5,20.7,30.08,NNE,25,2.0,3.0,89,0.00,,,0.00,WUHU216DAVISVP2,2013-01-02 22:29:00,
2013-01-02 17:34:00,23.6,20.8,30.09,NNE,27,0.0,3.0,89,0.00,,,0.00,WUHU216DAVISVP2,2013-01-02 22:34:00,
2013-01-02 17:39:00,23.5,21.0,30.08,NE,56,0.0,3.0,90,0.00,,,0.00,WUHU216DAVISVP2,2013-01-02 22:39:00,
2013-01-02 17:44:00,23.6,21.0,30.08,ENE,57,0.0,3.0,90,0.00,,,0.00,WUHU216DAVISVP2,2013-01-02 22:44:00,
2013-01-02 17:49:00,23.6,21.0,30.08,NE,56,0.0,1.0,90,0.00,,,0.00,WUHU216DAVISVP2,2013-01-02 22:49:00,
2013-01-02 17:54:00,23.6,21.0,30.08,NE,54,0.0,1.0,90,0.00,,,0.00,WUHU216DAVISVP2,2013-01-02 22:54:00,
2013-01-02 17:59:00,23.6,21.0,30.08,NE,51,1.0,1.0,90,0.00,,,0.00,WUHU216DAVISVP2,2013-01-02 22:59:00,
2013-01-02 18:04:00,23.6,21.0,30.08,NNE,12,0.0,2.0,90,0.00,,,0.00,WUHU216DAVISVP2,2013-01-02 23:04:00,
2013-01-02 18:09:00,23.7,21.1,30.08,NNW,338,0.0,2.0,90,0.00,,,0.00,WUHU216DAVISVP2,2013-01-02 23:09:00,
2013-01-02 18:14:00,23.7,21.1,30.08,NNW,335,1.0,2.0,90,0.00,,,0.00,WUHU216DAVISVP2,2013-01-02 23:14:00,
2013-01-02 18:19:00,23.7,21.1,30.08,NNW,334,1.0,2.0,90,0.00,,,0.00,WUHU216DAVISVP2,2013-01-02 23:19:00,
2013-01-02 18:24:00,23.7,21.1,30.09,NNW,334,1.0,2.0,90,0.00,,,0.00,WUHU216DAVISVP2,2013-01-02 23:24:00,
2013-01-02 18:29:00,23.8,21.2,30.09,NNW,344,1.0,2.0,90,0.00,,,0.00,WUHU216DAVISVP2,2013-01-02 23:29:00,
2013-01-02 18:34:00,23.8,21.2,30.09,NNW,345,2.0,3.0,90,0.00,,,0.00,WUHU216DAVISVP2,2013-01-02 23:34:00,
2013-01-02 18:39:00,23.8,21.2,30.09,NW,307,1.0,3.0,90,0.00,,,0.00,WUHU216DAVISVP2,2013-01-02 23:39:00,
2013-01-02 18:44:00,23.8,21.3,30.09,NNW,337,2.0,3.0,90,0.00,,,0.00,WUHU216DAVISVP2,2013-01-02 23:44:00,
2013-01-02 18:49:00,23.8,21.2,30.09,NNW,340,2.0,3.0,90,0.00,,,0.00,WUHU216DAVISVP2,2013-01-02 23:49:00,
2013-01-02 18:54:00,23.9,21.3,30.09,NNW,327,2.0,4.0,90,0.00,,,0.00,WUHU216DAVISVP2,2013-01-02 23:54:00,
2013-01-02 18:59:00,23.9,21.3,30.09,NNW,343,2.0,5.0,90,0.00,,,0.00,WUHU216DAVISVP2,2013-01-02 23:59:00,
2013-01-02 19:04:00,23.9,21.3,30.09,NW,318,2.0,5.0,90,0.00,,,0.00,WUHU216DAVISVP2,2013-01-03 00:04:00,
2013-01-02 19:09:00,23.9,21.3,30.09,North,351,1.0,5.0,90,0.00,,,0.00,WUHU216DAVISVP2,2013-01-03 00:09:00,
2013-01-02 19:14:00,23.9,21.3,30.09,NW,324,4.0,5.0,90,0.00,,,0.00,WUHU216DAVISVP2,2013-01-03 00:14:00,
2013-01-02 19:19:00,24.0,21.4,30.09,NNE,20,2.0,5.0,90,0.00,,,0.00,WUHU216DAVISVP2,2013-01-03 00:19:00,
2013-01-02 19:24:00,24.0,21.4,30.09,North,352,2.0,5.0,90,0.00,,,0.00,WUHU216DAVISVP2,2013-01-03 00:24:00,
2013-01-02 19:29:00,24.0,21.4,30.09,NNE,20,3.0,5.0,90,0.00,,,0.00,WUHU216DAVISVP2,2013-01-03 00:29:00,
2013-01-02 19:34:00,24.0,21.4,30.09,North,9,3.0,6.0,90,0.00,,,0.00,WUHU216DAVISVP2,2013-01-03 00:34:00,
2013-01-02 19:39:00,24.1,21.5,30.09,North,5,4.0,6.0,90,0.00,,,0.00,WUHU216DAVISVP2,2013-01-03 00:39:00,
2013-01-02 19:44:00,24.1,21.5,30.09,NW,325,1.0,6.0,90,0.00,,,0.00,WUHU216DAVISVP2,2013-01-03 00:44:00,
2013-01-02 19:49:00,24.1,21.3,30.09,NNE,16,6.0,8.0,89,0.00,,,0.00,WUHU216DAVISVP2,2013-01-03 00:49:00,
2013-01-02 19:54:00,24.2,21.4,30.08,NNW,329,3.0,11.0,89,0.00,,,0.00,WUHU216DAVISVP2,2013-01-03 00:54:00,
2013-01-02 19:59:00,24.1,21.3,30.08,NNW,337,4.0,11.0,89,0.00,,,0.00,WUHU216DAVISVP2,2013-01-03 00:59:00,
2013-01-02 20:04:00,24.1,21.3,30.08,North,351,4.0,11.0,89,0.00,,,0.00,WUHU216DAVISVP2,2013-01-03 01:04:00,
2013-01-02 20:09:00,24.1,21.0,30.08,NNW,328,4.0,11.0,88,0.00,,,0.00,WUHU216DAVISVP2,2013-01-03 01:09:00,
2013-01-02 20:14:00,24.0,20.9,30.08,NNW,341,2.0,9.0,88,0.00,,,0.00,WUHU216DAVISVP2,2013-01-03 01:14:00,
2013-01-02 20:19:00,23.9,20.6,30.08,NE,39,4.0,10.0,87,0.00,,,0.00,WUHU216DAVISVP2,2013-01-03 01:19:00,
2013-01-02 20:24:00,23.9,20.6,30.08,NNE,21,4.0,10.0,87,0.00,,,0.00,WUHU216DAVISVP2,2013-01-03 01:24:00,
2013-01-02 20:29:00,23.9,20.6,30.08,NE,40,6.0,10.0,87,0.00,,,0.00,WUHU216DAVISVP2,2013-01-03 01:29:00,
2013-01-02 20:34:00,23.8,20.5,30.08,NNE,25,4.0,10.0,87,0.00,,,0.00,WUHU216DAVISVP2,2013-01-03 01:34:00,
2013-01-02 20:39:00,23.8,20.5,30.08,North,359,3.0,10.0,87,0.00,,,0.00,WUHU216DAVISVP2,2013-01-03 01:39:00,
2013-01-02 20:44:00,23.8,20.2,30.07,NE,34,5.0,9.0,86,0.00,,,0.00,WUHU216DAVISVP2,2013-01-03 01:44:00,
2013-01-02 20:49:00,23.7,20.1,30.07,NNE,17,4.0,9.0,86,0.00,,,0.00,WUHU216DAVISVP2,2013-01-03 01:49:00,
2013-01-02 20:55:00,23.7,20.1,30.07,NNW,336,5.0,9.0,86,0.00,,,0.00,WUHU216DAVISVP2,2013-01-03 01:55:00,
2013-01-02 21:00:00,23.6,20.0,30.07,NE,40,5.0,9.0,86,0.00,,,0.00,WUHU216DAVISVP2,2013-01-03 02:00:00,
2013-01-02 21:05:00,23.6,20.0,30.07,NNE,15,7.0,9.0,86,0.00,,,0.00,WUHU216DAVISVP2,2013-01-03 02:05:00,
2013-01-02 21:10:00,23.6,19.7,30.07,North,358,3.0,10.0,85,0.00,,,0.00,WUHU216DAVISVP2,2013-01-03 02:10:00,
2013-01-02 21:15:00,23.5,19.6,30.07,NNE,30,3.0,11.0,85,0.00,,,0.00,WUHU216DAVISVP2,2013-01-03 02:15:00,
2013-01-02 21:20:00,23.5,19.6,30.07,NE,36,3.0,11.0,85,0.00,,,0.00,WUHU216DAVISVP2,2013-01-03 02:20:00,
2013-01-02 21:25:00,23.5,19.4,30.07,NE,56,3.0,10.0,84,0.00,,,0.00,WUHU216DAVISVP2,2013-01-03 02:25:00,
2013-01-02 21:30:00,23.4,19.3,30.07,NNE,26,5.0,10.0,84,0.00,,,0.00,WUHU216DAVISVP2,2013-01-03 02:30:00,
2013-01-02 21:35:00,23.4,19.3,30.07,North,9,2.0,10.0,84,0.00,,,0.00,WUHU216DAVISVP2,2013-01-03 02:35:00,
2013-01-02 21:40:00,23.3,18.9,30.07,NNE,26,8.0,12.0,83,0.00,,,0.00,WUHU216DAVISVP2,2013-01-03 02:40:00,
2013-01-02 21:45:00,23.2,18.5,30.07,NE,34,5.0,12.0,82,0.00,,,0.00,WUHU216DAVISVP2,2013-01-03 02:45:00,
2013-01-02 21:50:00,23.1,18.4,30.07,North,359,4.0,11.0,82,0.00,,,0.00,WUHU216DAVISVP2,2013-01-03 02:50:00,
2013-01-02 21:55:00,23.0,18.0,30.07,NNE,25,7.0,15.0,81,0.00,,,0.00,WUHU216DAVISVP2,2013-01-03 02:55:00,
2013-01-02 22:00:00,22.8,17.6,30.07,North,354,5.0,15.0,80,0.00,,,0.00,WUHU216DAVISVP2,2013-01-03 03:00:00,
2013-01-02 22:05:00,22.7,17.2,30.07,NE,39,6.0,15.0,79,0.00,,,0.00,WUHU216DAVISVP2,2013-01-03 03:05:00,
2013-01-02 22:10:00,22.6,16.8,30.07,NNW,333,9.0,16.0,78,0.00,,,0.00,WUHU216DAVISVP2,2013-01-03 03:10:00,
2013-01-02 22:15:00,22.4,16.3,30.07,NNE,27,13.0,16.0,77,0.00,,,0.00,WUHU216DAVISVP2,2013-01-03 03:15:00,
2013-01-02 22:20:00,22.3,16.2,30.07,North,5,13.0,15.0,77,0.00,,,0.00,WUHU216DAVISVP2,2013-01-03 03:20:00,
2013-01-02 22:25:00,22.1,16.0,30.07,NE,43,4.0,15.0,77,0.00,,,0.00,WUHU216DAVISVP2,2013-01-03 03:25:00,
2013-01-02 22:31:00,22.0,15.9,30.07,North,358,4.0,14.0,77,0.00,,,0.00,WUHU216DAVISVP2,2013-01-03 03:31:00,
2013-01-02 22:37:00,21.9,16.1,30.07,NE,35,11.0,14.0,78,0.00,,,0.00,WUHU216DAVISVP2,2013-01-03 03:37:00,
2013-01-02 22:42:00,21.7,15.9,30.07,NE,46,11.0,13.0,78,0.00,,,0.00,WUHU216DAVISVP2,2013-01-03 03:42:00,
2013-01-02 22:47:00,21.6,15.8,30.07,NNE,23,7.0,13.0,78,0.00,,,0.00,WUHU216DAVISVP2,2013-01-03 03:47:00,
2013-01-02 22:52:00,21.5,16.0,30.06,NNE,17,5.0,13.0,79,0.00,,,0.00,WUHU216DAVISVP2,2013-01-03 03:52:00,
2013-01-02 22:57:00,21.3,15.8,30.06,NNW,334,7.0,12.0,79,0.00,,,0.00,WUHU216DAVISVP2,2013-01-03 03:57:00,
2013-01-02 23:02:00,21.1,15.6,30.06,NNE,21,5.0,12.0,79,0.00,,,0.00,WUHU216DAVISVP2,2013-01-03 04:02:00,
2013-01-02 23:07:00,20.9,14.5,30.07,NE,49,6.0,12.0,76,0.00,,,0.00,WUHU216DAVISVP2,2013-01-03 04:07:00,
2013-01-02 23:12:00,20.8,14.2,30.07,NE,50,7.0,12.0,75,0.00,,,0.00,WUHU216DAVISVP2,2013-01-03 04:12:00,
2013-01-02 23:17:00,20.6,14.0,30.07,North,351,6.0,12.0,75,0.00,,,0.00,WUHU216DAVISVP2,2013-01-03 04:17:00,
2013-01-02 23:22:00,20.4,13.5,30.07,NE,49,10.0,11.0,74,0.00,,,0.00,WUHU216DAVISVP2,2013-01-03 04:22:00,
2013-01-02 23:27:00,20.2,13.0,30.07,NE,41,4.0,11.0,73,0.00,,,0.00,WUHU216DAVISVP2,2013-01-03 04:27:00,
2013-01-02 23:32:00,20.2,13.5,30.07,NNW,336,5.0,10.0,75,0.00,,,0.00,WUHU216DAVISVP2,2013-01-03 04:32:00,
2013-01-02 23:37:00,19.9,13.9,30.06,NW,323,5.0,10.0,77,0.00,,,0.00,WUHU216DAVISVP2,2013-01-03 04:37:00,
2013-01-02 23:42:00,19.6,13.6,30.06,NW,321,6.0,13.0,77,0.00,,,0.00,WUHU216DAVISVP2,2013-01-03 04:42:00,
2013-01-02 23:47:00,19.3,13.3,30.06,NNW,338,5.0,13.0,77,0.00,,,0.00,WUHU216DAVISVP2,2013-01-03 04:47:00,
2013-01-02 23:52:00,19.1,13.1,30.06,NNW,334,12.0,13.0,77,0.00,,,0.00,WUHU216DAVISVP2,2013-01-03 04:52:00,
2013-01-02 23:57:00,18.8,12.2,30.06,North,356,9.0,14.0,75,0.00,,,0.00,WUHU216DAVISVP2,2013-01-03 04:57:00,